CW8014 Weather Reports


Display with metric or nautical units.
time (UTC)temp
F
wind
direction
speed
MPH
gust
MPH
rain 1hr
in
rain 24hr
in
rain mn
in
humidity
%
barometer
mb
20260502130401 78 298 5.0 11.0 0.00 0.00 0.00 45 1015.4
20260502123401 79 213 8.0 19.0 0.00 0.00 0.00 43 1015.8
20260502122401 79 229 7.0 14.0 0.00 0.00 0.00 40 1015.8
20260502120409 80 228 6.0 15.0 0.00 0.00 0.00 37 1016.4
20260502115406 80 148 7.0 14.0 0.00 0.00 0.00 37 1016.5
20260502111406 78 241 4.0 10.0 0.00 0.00 0.00 32 1016.8
20260502110409 78 202 5.0 10.0 0.00 0.00 0.00 34 1016.9
20260502105406 77 261 5.0 12.0 0.00 0.00 0.00 32 1016.9
20260502104406 77 145 5.0 11.0 0.00 0.00 0.00 33 1017.0
20260502103405 76 245 4.0 11.0 0.00 0.00 0.00 32 1017.1
20260502102408 77 174 7.0 17.0 0.00 0.00 0.00 31 1017.3
20260502101406 76 174 4.0 11.0 0.00 0.00 0.00 34 1017.3
20260502100405 76 229 5.0 12.0 0.00 0.00 0.00 35 1017.5
20260502091405 72 161 6.0 10.0 0.00 0.00 0.00 41 1017.8
20260502090405 72 147 6.0 12.0 0.00 0.00 0.00 42 1017.9
20260502071405 65 151 4.0 12.0 0.00 0.00 0.00 53 1018.6
20260502070405 65 164 4.0 11.0 0.00 0.00 0.00 52 1018.7
20260502065405 64 143 3.0 7.0 0.00 0.00 0.00 55 1018.7
20260502064405 61 169 4.0 10.0 0.00 0.00 0.00 57 1018.6
20260502063405 61 170 5.0 10.0 0.00 0.00 0.00 58 1018.6
20260502062405 60 150 3.0 7.0 0.00 0.00 0.00 60 1018.6
20260502061405 59 153 5.0 10.0 0.00 0.00 0.00 59 1018.7
20260502060405 59 156 4.0 8.0 0.00 0.00 0.00 61 1018.7
20260502055405 58 159 5.0 10.0 0.00 0.00 0.00 62 1018.7
20260502054405 57 180 5.0 8.0 0.00 0.00 0.00 62 1018.8
20260502053406 56 170 5.0 10.0 0.00 0.00 0.00 64 1018.7
20260502052406 56 185 5.0 9.0 0.00 0.00 0.00 64 1018.9
20260502051406 55 163 5.0 10.0 0.00 0.00 0.00 66 1018.8
20260502050405 54 164 4.0 7.0 0.00 0.00 0.00 67 1018.9
20260502045405 54 175 4.0 6.0 0.00 0.00 0.00 68 1018.9
20260502044405 53 163 4.0 9.0 0.00 0.00 0.00 69 1018.9
20260502042405 52 162 4.0 7.0 0.00 0.00 0.00 71 1018.9
20260502040405 49 165 3.0 5.0 0.00 0.00 0.00 78 1019.0
20260502035405 48 119 1.0 2.0 0.00 0.00 0.00 79 1019.1
20260502034408 49 152 1.0 2.0 0.00 0.00 0.00 76 1019.1
20260502033405 49 151 2.0 3.0 0.00 0.00 0.00 76 1019.1
20260502032405 49 146 1.0 3.0 0.00 0.00 0.00 76 1019.1
20260502031405 50 151 2.0 4.0 0.00 0.00 0.00 76 1019.3
20260502030405 50 153 2.0 3.0 0.00 0.00 0.00 77 1019.4
20260502025406 49 159 2.0 5.0 0.00 0.00 0.00 78 1019.4
20260502024405 48 160 2.0 4.0 0.00 0.00 0.00 80 1019.4
20260502022405 46 157 2.0 4.0 0.00 0.00 0.00 85 1019.7
20260502021405 46 155 2.0 4.0 0.00 0.00 0.00 85 1019.7
20260502020405 46 146 2.0 4.0 0.00 0.00 0.00 85 1019.8
20260502014405 47 148 2.0 4.0 0.00 0.00 0.00 85 1020.1
20260502013405 47 146 2.0 4.0 0.00 0.00 0.00 85 1020.2
20260502012405 47 147 2.0 3.0 0.00 0.00 0.00 84 1020.3
20260502011408 48 148 1.0 1.0 0.00 0.00 0.00 84 1020.4
20260502005410 49 149 1.0 2.0 0.00 0.00 0.00 82 1020.6
20260502004410 49 148 1.0 2.0 0.00 0.00 0.00 82 1020.7
20260502003410 49 149 1.0 2.0 0.00 0.00 0.00 82 1020.8
20260502001410 50 149 0.0 1.0 0.00 0.00 0.00 79 1021.0
20260502000413 51 149 1.0 2.0 0.00 0.00 0.00 78 1021.0
20260501235410 51 149 0.0 1.0 0.00 0.00 0.00 77 1021.0
20260501234410 52 149 2.0 3.0 0.00 0.00 0.00 73 1021.2
20260501233410 53 150 2.0 3.0 0.00 0.00 0.00 71 1021.2
20260501232410 55 148 1.0 3.0 0.00 0.00 0.00 68 1021.2
20260501231410 56 148 1.0 3.0 0.00 0.00 0.00 67 1021.2
20260501230410 56 148 2.0 3.0 0.00 0.00 0.00 66 1021.3
20260501225411 56 150 3.0 5.0 0.00 0.00 0.00 66 1021.3
20260501224410 56 140 2.0 4.0 0.00 0.00 0.00 66 1021.3
20260501223410 56 130 2.0 4.0 0.00 0.00 0.00 65 1021.4
20260501222410 56 130 3.0 5.0 0.00 0.00 0.00 66 1021.3
20260501221410 56 130 3.0 4.0 0.00 0.00 0.00 67 1021.4
20260501220410 56 119 2.0 3.0 0.00 0.00 0.00 66 1021.4
20260501215410 57 124 2.0 4.0 0.00 0.00 0.00 65 1021.5
20260501214410 58 115 2.0 3.0 0.00 0.00 0.00 63 1021.5
20260501213410 59 116 2.0 3.0 0.00 0.00 0.00 61 1021.5
20260501210410 60 138 3.0 5.0 0.00 0.00 0.00 58 1021.7
20260501204410 60 119 3.0 5.0 0.00 0.00 0.00 60 1021.8
20260501203410 60 123 2.0 5.0 0.00 0.00 0.00 60 1021.8
20260501202410 60 115 2.0 3.0 0.00 0.00 0.00 59 1021.9
20260501201410 61 121 2.0 3.0 0.00 0.00 0.00 58 1022.1
20260501200410 62 122 1.0 2.0 0.00 0.00 0.00 57 1022.1
20260501195410 63 123 1.0 3.0 0.00 0.00 0.00 54 1022.2
20260501194410 64 124 1.0 3.0 0.00 0.00 0.00 51 1022.1
20260501193410 65 130 2.0 4.0 0.00 0.00 0.00 50 1022.2
20260501192410 66 140 2.0 5.0 0.00 0.00 0.00 49 1022.2
20260501191410 67 145 3.0 4.0 0.00 0.00 0.00 48 1022.2
20260501184410 69 142 3.0 7.0 0.00 0.00 0.00 44 1022.2
20260501183410 70 156 3.0 7.0 0.00 0.00 0.00 42 1022.1
20260501182410 71 161 4.0 8.0 0.00 0.00 0.00 42 1022.1
20260501181410 72 151 5.0 10.0 0.00 0.00 0.00 40 1022.1
20260501180410 72 169 5.0 11.0 0.00 0.00 0.00 39 1021.8
20260501175410 73 134 6.0 10.0 0.00 0.00 0.00 39 1021.9
20260501173410 73 130 7.0 13.0 0.00 0.00 0.00 38 1021.8
20260501172410 74 115 6.0 12.0 0.00 0.00 0.00 38 1022.0
20260501171410 74 146 8.0 17.0 0.00 0.00 0.00 38 1022.3
20260501165410 74 87 7.0 13.0 0.00 0.00 0.00 36 1022.3
20260501164410 75 140 8.0 14.0 0.00 0.00 0.00 36 1022.4
20260501163413 75 144 9.0 17.0 0.00 0.00 0.00 37 1022.6
20260501162410 75 110 6.0 11.0 0.00 0.00 0.00 36 1022.6
20260501161410 75 143 7.0 15.0 0.00 0.00 0.00 34 1022.7
20260501160410 76 175 8.0 14.0 0.00 0.00 0.00 34 1022.8
20260501155410 76 180 8.0 16.0 0.00 0.00 0.00 34 1023.1
20260501154410 76 84 8.0 13.0 0.00 0.00 0.00 34 1023.1
20260501153409 76 155 8.0 15.0 0.00 0.00 0.00 33 1023.2
20260501152409 76 144 8.0 14.0 0.00 0.00 0.00 33 1023.3
20260501150410 76 161 6.0 11.0 0.00 0.00 0.00 35 1023.6
20260501145410 76 165 6.0 17.0 0.00 0.00 0.00 34 1023.8
20260501143410 78 83 8.0 18.0 0.00 0.00 0.00 33 1023.9
20260501142502 78 150 7.0 15.0 0.00 0.00 0.00 32 1023.9
20260501141401 77 65 6.0 12.0 0.00 0.00 0.00 33 1024.1
20260501140401 77 167 9.0 20.0 0.00 0.00 0.00 33 1024.1